Location: T�bingen+AIT
(48.5342°N, 9.0700°E)
Time: 22:35:38
(UTC+01:00)

Cosmos 1125 Rocket - Pass Details

Date: 14 September 2017
Orbit: 757 x 781 km, 74.0° (Epoch: 18 November)

Event Time Altitude Azimuth Distance (km) Brightness Sun altitude
Rises 22:45:13 0° 334° (NNW) 3,250 7.8 -28.5°
Reaches altitude 10° 22:47:36 10° 332° (NNW) 2,323 6.9 -28.8°
Enters shadow 22:52:23 62° 280° (W) 871 3.8 -29.3°
